Regional Weather Roundup
Issued by NWS Wakefield, VA

Home | Current Version | Previous Version | Graphics & Text | Print | Product List | Glossary On
Versions: 1 2 3 4 5 6 7 8 9 10 11 12 13 14 15 16 17 18 19 20 21 22 23 24 25 26 27
000
ASUS41 KAKQ 262215
RWRAKQ

REGIONAL WEATHER ROUNDUP
NATIONAL WEATHER SERVICE WAKEFIELD VA
600 PM EDT TUE JUL 26 2016

Note: "fair" indicates few or no clouds below 12,000 feet with no
significant weather and/or obstructions to visibility. * = Denotes
station may not report precipitation (e.g., rain,snow,etc.),
thunder or fog.

VAZ042-051-052>054-056-262300-
NORTHERN VIRGINIA

CITY           SKY/WX    TMP DP  RH WIND       PRES   REMARKS
WASH NATIONAL  PTSUNNY   95  65  37 N12       29.91S HX  97
DULLES         PTSUNNY   90  66  45 NW8       29.92F
FORT BELVOIR   FAIR      94  68  41 N7        29.90S HX  98
QUANTICO       FAIR      93  70  46 SE5       29.90F HX  99
FREDERICKSBRG*   N/A     92  73  52 E5        29.90S HX 101
STAFFORD*      FAIR      92  70  48 E5        29.94F HX  97
WARRENTON      FAIR      91  67  45 N6        29.92S
CULPEPER*      FAIR      88  76  68 CALM      29.92S HX  99
MANASSAS*      SUNNY     93  70  46 N12       29.91F HX  99
LEESBURG*      FAIR      90  72  55 CALM      29.93F HX  96
WINCHESTER     FAIR      88  70  55 W5        29.95S
FRONT ROYAL*   FAIR      88  70  55 NW7       29.93S
LURAY*         MOCLDY    81  70  69 SW12G29   29.97R HAZE
$$

VAZ048-049-060>072-079>083-262300-
CENTRAL AND SOUTH CENTRAL VIRGINIA

CITY           SKY/WX    TMP DP  RH WIND       PRES   REMARKS
RICHMOND       PTSUNNY   90  75  61 SE6       29.89F HX 100
CHESTERFIELD*  MOCLDY    91  68  46 S6        29.91S HX  95
PETERSBURG*    PTSUNNY   89  76  64 S6        29.93R HX 100
HANOVER        FAIR      96  72  45 NE3       29.91F HX 104
TAPPAHANNOCK*  FAIR      89  72  57 E6        29.92R HX  96
QUINTON*       FAIR      94  76  57 SE3       29.89F HX 107
CHARLOTTSVILLE FAIR      90  73  57 VRB3      29.94R HX  98
GORDONSVILLE*  FAIR      86  79  79 CALM      29.92S HX 100
ORANGE*          N/A     91  73  55 CALM      29.93F HX 100
LOUISA*        FAIR      93  79  62 SE3       29.91S HX 110
BUMPASS*       FAIR      93  76  58 CALM      29.91S HX 105
FARMVILLE*     NOT AVBL
CREWE*         FAIR      89  79  73 CALM      29.92S HX 104
FORT PICKETT*  FAIR      90  80  73 CALM      29.93R HX 108
CHASE CITY*    FAIR      95  69  43 W3        29.91S HX 100
CLARKSVILLE*   FAIR      95  73  49 SW7       29.91S HX 105
SOUTH HILL*    CLOUDY    76  75  97 SE7       29.99S THUNDER VSB 1/2
LAWRENCEVILLE* CLOUDY    74  74  98 SE8       30.00R
EMPORIA*       RAIN      77  73  88 SW9       29.97R
$$

VAZ088>098-262300-
SOUTHEAST VIRGINIA

CITY           SKY/WX    TMP DP  RH WIND       PRES   REMARKS
NORFOLK        FAIR      90  77  65 E7        29.91S HX 103
VIRGINIA BEACH PTSUNNY   89  76  65 E7        29.92R HX 100
NORFOLK NAVAL  PTSUNNY   87  77  72 SE6       29.93R HX  99
WEST POINT*    FAIR      87  74  65 NE6       29.92S HX  96
SALUDA*        FAIR      88  81  80 E5        29.90F HX 105
NEWPORT NEWS   FAIR      88  78  72 E9        29.91S HX 101
LANGLEY AFB    FAIR      86  77  74 SE7       29.91S HX  98
FORT EUSTIS    FAIR      94  78  61 E8        29.89S HX 110
WILLIAMSBURG*  FAIR      91  81  70 E5        29.92S HX 110
HR EXEC AP*    MOCLDY    84  72  65 SW12G22   29.96R
FRANKLIN*      FAIR      77  73  86 CALM      29.93R
US460-WAKEFLD  FAIR      85  74  69 SW6       29.92R
$$

VAZ020-022-025-037-045-262300-
WEST CENTRAL AND SOUTHWEST VIRGINIA

CITY           SKY/WX    TMP DP  RH WIND       PRES   REMARKS
STAUNTON*      PTSUNNY   77  73  86 S3        30.02R
WAYNESBORO*    FAIR      79  71  76 N5        30.01R
HOT SPRINGS VA NOT AVBL
LYNCHBURG      FAIR      92  69  47 SW3       29.95S HX  97
DANVILLE       FAIR      91  74  57 SW3       29.93S HX 100
SOUTH BOSTON*  FAIR      95  73  48 SW8       29.91S HX 104
MARTINSVILLE   FAIR      83  71  67 CALM      29.99F
ROANOKE        FAIR      94  68  42 SW7       29.97F HX  98
BLACKSBURG     FAIR      89  70  52 W5        30.07S
DUBLIN*        PTSUNNY   89  70  53 CALM      30.06S
MARION*        FAIR      87  71  59 W8        30.10F
HILLSVILLE*    PTSUNNY   86  71  60 CALM      30.08S
RICHLANDS*     MOCLDY    86  71  59 CALM      30.10S
WISE*          PTSUNNY   82  63  51 NW3       30.11F
ABINGDON*      FAIR      91  69  48 N3        30.05F HX  95
$$

MDZ021>025-VAZ099-100-262300-
SOUTHERN MARYLAND AND THE DELMARVA PENINSULA

CITY           SKY/WX    TMP DP  RH WIND       PRES   REMARKS
PATUXENT RIVER MOSUNNY   88  76  67 SE6       29.90F HX  99
BAY BRIDGE APT MOSUNNY   88  75  66 CALM      29.90S HX  97
LEONARDTOWN    MOSUNNY   86  75  70 S3        29.92  HX  95
DOVER          MOSUNNY   91  74  57 SW9       29.89F HX 100
GEORGETOWN     PTSUNNY   89  71  55 E9        29.91S HX  95
EASTON         MOSUNNY   91  79  66 NW7       29.94F HX 107
CAMBRIDGE      SUNNY     90  72  55 CALM      29.89F HX  96
SALISBURY      MOSUNNY   85  75  72 SE7       29.91S
OCEAN CITY     SUNNY     85  68  56 S5        29.91F
WALLOPS ISLAND FAIR      85  71  63 S9        29.92S
ACCOMACK*      FAIR      86  72  62 CALM      29.92S
$$

NCZ012>017-030>032-262300-
NORTH CENTRAL AND EASTERN NORTH CAROLINA

CITY           SKY/WX    TMP DP  RH WIND       PRES   REMARKS
ROANOKE RAPIDS FAIR      79  75  89 N3        29.93R
RALEIGH        MOSUNNY   95  74  50 W8        29.93S HX 105
ELIZABETH CITY CLOUDY    83  75  77 NE23G30   29.94R THUNDER
AHOSKIE*       CLOUDY    76  75  96 CALM      29.93S FOG
EDENTON*       CLOUDY    94  74  53 W3        29.91F HX 104
CURRITUCK*     RAIN      83  78  83 SW8       29.94R
KILL DEVIL HLS CLOUDY    93  76  57 E3        29.91S HX 105
MANTEO           N/A     89  78  70 S8        29.92S HX 103
CAPE HATTERAS  SUNNY     86  77  74 SW13      29.95S HX  97
TARBORO*       FAIR      95  78  57 SW5       29.93R HX 111
GOLDSBORO      MOSUNNY   97  76  51 SW12      29.91S HX 110
WASHINGTON     SUNNY     93  76  57 SW9       29.92S HX 106
GREENVILLE     SUNNY     95  77  55 W7        29.93F HX 109
NEW BERN       MOSUNNY   92  77  61 S9        29.95R HX 105
WILMINGTON     SUNNY     91  73  55 SW13G20   29.96S HX  99
$$

VAZ048-262300-
ELSEWHERE

CITY           SKY/WX    TMP DP  RH WIND       PRES   REMARKS
HARRISBURG PA  PTSUNNY   89  74  60 SW8       29.88S HX  98
BALTIMORE      CLOUDY    90  67  46 W7        29.90F
ANNAPOLIS      CLOUDY    89  73  59 NW6       29.89F HX  97
ANDREWS AFB    FAIR      92  68  45 W7        29.90F HX  96
PHILADELPHIA   PTSUNNY   91  65  41 NW14      29.89S
GREENSBORO     PTSUNNY   92  70  48 N7        29.95S THUNDER HX  97
ROCKY MOUNT    SUNNY     94  77  57 SW10      29.92S HX 108
$$

VAZ100-262300-
MARINE

STATION/POSITION TIME  TEMP    WIND        PRES    WAVE   SWELL
                       AIR SEA DIR/SP/G            HT/PER HT/PER
                 (UTC) (F)     (DEG/KT/KT) (MB)    (FT/S) (FT/S)
BRANDYWINE LGT   2100   81     190/  7/  8   N/A
CAPE MAY NJ      2100   81 72  210/  6/  7 1012.3F
LEWES DE         2100   87 77  130/  4/  6 1012.8F
OCEAN-CITY-INLET 2100   79 70  220/  8/  9 1013.4F
WACHAPREAGUE VA  2100   83     120/  5/  7 1013.1F
THOMAS POINT MD  2200   89 85  310/  2/  2 1013.9F
GOOSES REEF MD   2100   90 89  160/  6/  6 1013.7F   0
COVE POINT MD    2100   87     190/  6/  7 1013.2F
SOLOMONS ISLAND  2100   87 85  240/  1/  2   N/A
BISHOPS HEAD MD  2100   88     240/  6/  7 1013.1F
PINEY POINT MD   2100          120/  7/  7   N/A
POTOMAC MD       2100   88 87  170/  6/  8 1011.8F   0
CAMBRIDGE MD     2100   90 86  350/  4/  5 1011.9F
LEWISETTA VA     2100   88 89  180/  7/  9 1012.5F
RAPPAHANNOCK LGT 2100          110/  8/  9 1013.6F
STINGRAY PT      2100   87 87   70/  8/ 10 1013.5F   0
YORK RVR RNG VA  2100   85     120/ 11/ 13 1012.3F
YORKTOWN VA      2100   86 85  110/  8/ 12 1012.7F
JAMESTOWN VA     2100   93 90   90/  4/ 10   N/A     0
DOMINION TERM VA 2100   84      70/ 10/ 14 1013.1F
KIPTOPEKE VA     2100      82  120/  7/ 11   N/A
CHES BAY BRIDGE  2100   81 74   80/ 10/ 12 1012.9F
CAPE HENRY VA    2100   81      90/ 10/ 11   N/A
WILLOUBY STN VA  2100   82      80/ 12/ 14   N/A
CAPE HENRY BUOY  2112      79                N/A     2/ 6
1ST LANDING BUOY 2100   80 80  110/ 10/ 12 1012.5F
CAPE CHARLES BUO 2126      79                N/A     1/ 6
OFFSHORE WE BUOY 2121      84                N/A     2/ 6
64NM E OF VA BCH 2150   83 81  230/  4/  4 1013.0F   3/ 6   3/ 6
DUCK PIER NC     2100   79 62  140/ 10/ 12 1012.4F
44100 DUCK FRF   2105      79                N/A     2/ 6
44056 DUCK FRF   2111      70                N/A     1/ 8
OREGON INLET NC  2100   86 85  190/ 15/ 17 1012.9F
HATTERAS NC      2100   85 83  220/ 11/ 15 1013.7F
DIAMOND SHLS NC  2150   85 85  230/ 17/ 21 1014.0F   5/ 6
CAPE LOOKOUT NC  2200   86     230/ 13/ 17 1014.4R
$$




USA.gov is the U.S. government's official web portal to all federal, state and local government web resources and services.